Regional Weather Roundup
Issued by NWS Mobile, AL

Home | Current Version | Previous Version | Text Only | Print | Product List | Glossary On
Versions: 1 2 3 4 5 6 7 8 9 10 11 12 13 14 15 16 17 18 19 20 21 22 23 24 25 26 27 28
000
ASUS44 KMOB 191510
RWRMOB
REGIONAL WEATHER ROUNDUP
NATIONAL WEATHER SERVICE MOBILE AL
1000 AM CDT SAT APR 19 2014

NOTE: "FAIR" INDICATES FEW OR NO CLOUDS BELOW 12,000 FEET WITH NO
      SIGNIFICANT WEATHER AND/OR OBSTRUCTIONS TO VISIBILITY.

  * THESE STATIONS ARE PART OF THE UNIVERSITY OF SOUTH ALABAMA
    MESONET AND ARE NOT UNDER NWS OR FAA QUALITY CONTROL.

ALZ061>064-191600-
COASTAL ALABAMA

CITY           SKY/WX    TMP DP  RH WIND       PRES   REMARKS
MOBILE REG APT MOSUNNY   65  51  60 N13       30.14R
BROOKLEY FIELD SUNNY     65  52  62 N12       30.14R
USA CAMPUS*      N/A     66  50  55 NE8       30.13S
DOG RIVER*     NOT AVBL


CITY           SKY/WX    TMP DP  RH WIND       PRES   REMARKS
MOUNT VERNON*    N/A     63  52  67 W5        30.15R
SARALAND*      NOT AVBL
BAY MINETTE*   NOT AVBL
LOXLEY*        NOT AVBL
ROBERTSDALE*   NOT AVBL
FAIRHOPE*      NOT AVBL
ELBERTA*       NOT AVBL
FOLEY*         NOT AVBL
GRAND BAY*       N/A     64  54  68 N12       30.13R
DAUPHIN ISLND* NOT AVBL
BON SCOUR NWR* NOT AVBL
GULF SHORES    PTSUNNY   64  54  68 N15       30.10S

$$

ALZ051>060-191600-
INTERIOR SOUTHWEST AND SOUTH CENTRAL ALABAMA

CITY           SKY/WX    TMP DP  RH WIND       PRES   REMARKS
GREENVILLE     CLOUDY    64  52  64 N8        30.08S
EVERGREEN      PTSUNNY   64  51  62 N10       30.10F
CASTLEBERRY*   NOT AVBL
ATMORE*          N/A     63  54  72 NW16      30.12S
DIXIE*         NOT AVBL
ANDALUSIA/OPP  CLOUDY    61  55  81 N7        30.08S
ANDALUSIA*     NOT AVBL
FLORALA APT    LGT RAIN  57  54  88 VRB7      30.08
FLORALA*         N/A     59  52  77 NW6       30.05S

$$

FLZ001>006-191600-
WESTERN FLORIDA PANHANDLE

CITY           SKY/WX    TMP DP  RH WIND       PRES   REMARKS
PENSACOLA      MOSUNNY   64  53  67 N14G25    30.09R
NAS PENSACOLA  PTSUNNY   64  54  69 N15G23    30.09R
MILTON         PTSUNNY   62  52  69 N18G24    30.09S
WHTNG S FIELD  CLOUDY    64  53  67 NE17G24   30.09S


CITY           SKY/WX    TMP DP  RH WIND       PRES   REMARKS
WALNUT HILL*   NOT AVBL
JAY*           NOT AVBL
DUKE FIELD     CLOUDY    61  53  75 N15G21    30.07R
CRESTVIEW      PTSUNNY   62  52  69 N10       30.09R
VALPARAISO     CLOUDY    60  54  81 N13       30.07R
DESTIN         CLOUDY    60  52  74 N14       30.07R

$$

MSZ076-079-191600-
INTERIOR SOUTHEAST MISSISSIPPI

CITY           SKY/WX    TMP DP  RH WIND       PRES   REMARKS
LEAKESVILLE*     N/A     61  50  67 N7        30.16R
AGRICOLA*      NOT AVBL

$$

MARINE OBSERVATIONS

STATION/POSITION TIME  TEMP    WIND        PRES    WAVE
                       AIR SEA DIR/SP/G            HT/PER
                 (UTC) (F)     (DEG/KT/KT) (MB)    (FT/S)
PASCAGOULA       1500   63      10/ 11/ 16 1019.9S
PETIT BOIS ISLND 1500   62      20/ 12/ 15 1020.3S
GRAND BAY        1400   59      10/  9     1021.0S
KATRINA CUT      1400   59     360/ 11     1020.6F
CEDAR POINT      1400   59      20/ 12     1020.0S
E DAUPHIN ISLAND 1500   59     350/ 16/ 17 1019.7R
MIDDLE BAY LIGHT 1400   60     360/ 16     1019.6R
USCG MOBILE BAY  1500   62 62  360/ 10/ 14 1019.2R
STATE DOCKS      1500   64 62              1020.0R
MEAHER PARK      1400   61     340/  8     1020.3R
WEEKS BAY        1400   57                   N/A
FORT MORGAN      1500   58     360/ 14/ 16 1019.5R
12 S ORANGE BCH  1500   60 65  360/ 16/ 17 1019.1R   3/ 4
PENSACOLA BAY    1500   63 65   20/  8/ 19 1019.0F
64 S DAUPHIN ISL 1407   61 70   10/ 21/ 23 1019.4F
67 S FORT MORGAN 1400   62                 1019.0S

$$

SELECTED LOCATIONS ACROSS THE REGION

CITY           SKY/WX    TMP DP  RH WIND       PRES   REMARKS
NEW ORLEANS    MOSUNNY   66  54  65 VRB7      30.18R
GULFPORT       SUNNY     69  49  48 N12       30.14S
PASCAGOULA AP  SUNNY     65  51  60 N15       30.14R
PASCAGOULA*      N/A     64  52  63 N9        30.13S
HATTIESBURG    SUNNY     65  52  62 N9        30.18S
LAUREL         SUNNY     66  52  59 N9        30.19S
MERIDIAN       SUNNY     68  52  56 N10       30.17R
JACKSON        SUNNY     68  52  56 N8        30.19F
MONTGOMERY     PTSUNNY   65  50  58 N9        30.09S
TROY           CLOUDY    61  54  77 N10       30.07S
KINSTON*       NOT AVBL
GENEVA*          N/A     57  52  82 N9        30.08R
ASHFORD*       NOT AVBL
DOTHAN         CLOUDY    57  52  83 N9        30.06R
PANAMA CITY    CLOUDY    59  52  77 NW12      30.03R

$$




USA.gov is the U.S. government's official web portal to all federal, state and local government web resources and services.